Probability
0 0 0 0 0 0 0 0 0 0 0 0 0 0 0 0 0 0 0 0 0 0 0 0 0 0 0 0 0 0 0 0 0 0 0 0 0 0 0 0 0 0 0
0 0 0 0 0 0 0 0 0 0 0 0 0 0 0 0 0 0 0 0 0 0 0 0 0 0 0 0 0 0 0 0 0 0 0 0 0 0 0 0 0 0 0
0 0 0 0 0 0 0 0 0 0 0 0 0 0 0 0 0 0 0 0 0 0 0 0 0 0 0 0 0 0 0 0 0 0 0 0 0 0 0 0 0 0 0
0 0 0 0 0 0 0 0 0 0 0 0 0 0 0 0 0 0 0 0 0 0 0 0 0 0 0 0 0 0 0 0 0 0 0 0 0 0 0 0 0 0 0
0 0 0 0 0 0 0 0 0 0 0 0 0 0 0 0 0 0 0 0 0 0 0 0 0 0 0 0 0 0 0 0 0 0 0 0 0 0 0 0 0 0 0
0 0 0 0 0 0 0 0 0 0 0 0 0 0 0 0 0 0 0 0 0 0 0 0 0 0 0 0 0 0 0 0 0 0 0 0 0 0 0 0 0 0 0
0 0 0 0 0 0 0 0 0 0 0 0 0 0 0 0 0 0 0 0 0 0 0 0 0 0 0 0 0 0 0 0 0 0 0 0 0 0 0 0 0 0 0
0 0 0 0 0 0 0 0 0 0 0 0 0 0 0 0 0 0 0 0 0 0 0 0 0 0 0 0 0 0 0 0 0 0 0 0 0 0 0 0 0 0 0
0 0 0 0 0 0 0 0 0 0 0 0 0 0 0 0 0 0 0 0 0 0 0 0 0 0 0 0 0 0 0 0 0 0 0 0 0 0 0 0 0 0 0
0 0 0 0 0 0 0 0 0 0 0 0 0 0 0 0 0 0 0 0 0 0 0 0 0 0 0 0 0 0 0 0 0 0 0 0 0 0 0 0 0 0 0
0 0 0 0 0 0 0 0 0 0 0 0 0 0 0 0 0 0 0 0 0 0 0 0 0 0 0 0 0 0 0 0 0 0 0 0 0 0 0 0 0 0 0
0 0 0 0 0 0 0 0 0 0 0 0 0 0 0 0 0 0 0 0 0 0 0 0 0 0 0 0 0 0 0 0 0 0 0 0 0 0 0 0 0 0 0
0 0 0 0 0 0 0 0 0 0 0 0 0 0 0 0 0 0 0 0 0 0 0 0 0 0 0 0 0 0 0 0 0 0 0 0 0 0 0 0 0 0 0
0 0 0 0 0 0 0 0 0 0 0 0 0 0 0 0 0 0 0 0 0 0 0 0 0 0 0 0 0 0 0 0 0 0 0 0 0 0 0 0 0 0 0
0 0 0 0 0 0 0 0 0 0 0 0 0 0 0 0 0 0 0 0 0 0 0 0 0 0 0 0 0 0 0 0 0 0 0 0 0 0 0 0 0 0 0
0 0 0 0 0 0 0 0 0 0 0 0 0 0 0 0 0 0 0 0 0 0 0 0 0 0 0 0 0 0 0 0 0 0 0 0 0 0 0 0 0 0 0
0 0 0 0 0 0 0 0 0 0 0 0 0 0 0 0 0 0 0 0 0 0 0 0 0 0 0 0 0 0 0 0 0 0 0 0 0 0 0 0 0 0 0
0 0 0 0 0 0 0 0 0 0 0 0 0 0 0 0 0 0 0 0 0 0 0 0 0 0 0 0 0 0 0 0 0 0 0 0 0 0 0 0 0 0 0
0 0 0 0 0 0 0 0 0 0 0 0 0 0 0 0 0 0 0 0 0 0 0 0 0 0 0 0 0 0 0 0 0 0 0 0 0 0 0 0 0 0 0
0 0 0 0 0 0 0 0 0 0 0 0 0 0 0 0 0 0 0 0 0 0 0 0 0 0 0 0 0 0 0 0 0 0 0 0 0 0 0 0 0 0 0
0 0 0 0 0 0 0 0 0 0 0 0 0 0 0 0 0 0 0 0 0 0 0 0 0 0 0 0 0 0 0 0 0 0 0 0 0 0 0 0 0 0 0
0 0 0 0 0 0 0 0 0 0 0 0 0 0 0 0 0 0 0 0 0 0 0 0 0 0 0 0 0 0 0 0 0 0 0 0 0 0 0 0 0 0 0
0 0 0 0 0 0 0 0 0 0 0 0 0 0 0 0 0 0 0 0 0 0 0 0 0 0 0 0 0 0 0 0 0 0 0 0 0 0 0 0 0 0 0
0 0 0 0 0 0 0 0 0 0 0 0 0 0 0 0 0 0 0 0 0 0 0 0 0 0 0 0 0 0 0 0 0 0 0 0 0 0 0 0 0 0 0
0 0 0 0 0 0 0 0 0 0 0 0 0 0 0 0 0 0 0 0 0 0 0 0 0 0 0 0 0 0 0 0 0 0 0 0 0 0 0 0 0 0 0
0 0 0 0 0 0 0 0 0 0 0 0 0 0 0 0 0 0 0 0 0 0 0 0 0 0 0 0 0 0 0 0 0 0 0 0 0 0 0 0 0 0 0
Wind_Speed
10 11 12 12 13 13 13 13 13 13 13 14 14 14 14 14 13 13 14 14 15 16 17 18 19 19 19 20 20 20 20 20 20 21 22 22 22 22 22 21 17 17 22
12 13 12 12 13 13 13 13 13 13 13 13 14 14 14 14 14 14 14 14 15 15 17 18 19 19 19 19 19 19 20 19 18 16 16 21 22 22 22 22 21 17 23
13 13 14 12 13 13 13 13 12 13 13 13 14 14 14 14 14 14 14 14 14 15 16 17 19 19 19 19 19 19 19 18 16 13 13 16 19 23 23 23 23 23 23
13 13 13 13 13 14 13 13 12 13 13 13 14 14 14 14 14 14 14 14 14 15 16 18 19 19 19 19 19 19 19 18 14 11 13 15 16 21 23 23 23 23 23
13 12 13 12 13 14 14 13 12 12 13 13 14 14 14 15 15 15 15 14 15 16 17 18 19 19 18 19 19 18 18 16 12 15 15 15 15 21 22 23 23 23 23
13 12 13 12 13 14 14 13 13 12 13 13 14 14 15 15 15 15 15 15 15 16 18 19 19 19 19 19 19 18 17 14 13 14 15 15 14 20 22 22 22 23 23
12 11 13 12 12 13 14 14 13 13 13 13 13 14 15 15 15 15 16 16 16 17 18 19 19 19 19 19 18 18 16 13 14 14 14 14 16 20 21 21 22 22 23
12 11 12 11 11 12 12 13 13 13 13 13 13 14 15 15 15 15 16 16 17 18 19 19 20 20 20 20 20 18 15 10 14 15 14 15 17 20 21 21 22 22 22
11 11 11 12 12 11 11 12 12 12 12 12 13 14 14 14 15 15 15 16 17 18 19 19 19 20 20 20 20 19 15 12 14 12 14 13 18 21 22 23 23 24 24
10 11 10 10 11 12 12 12 12 12 11 12 12 13 13 13 14 12 13 16 17 18 19 19 20 20 20 19 18 16 12 11 14 14 11 13 19 22 23 23 24 25 25
9 10 10 10 10 10 10 11 12 12 12 12 12 12 11 10 11 10 13 15 17 18 19 19 20 20 19 18 17 14 10 10 13 11 11 16 20 22 23 24 25 25 26
14 12 10 10 10 9 8 9 9 10 11 10 10 10 8 8 8 11 13 13 16 17 18 18 17 14 11 9 10 9 8 12 11 10 11 18 21 22 23 24 25 25 26
14 12 10 10 9 9 7 7 6 6 7 9 10 10 8 8 8 8 7 9 10 11 11 11 10 8 8 7 7 8 9 9 8 9 13 18 21 22 24 24 24 25 25
14 14 11 10 9 9 8 7 7 6 6 7 9 10 8 6 7 7 5 7 6 5 8 7 7 10 10 10 10 10 10 8 8 8 12 18 21 22 23 23 23 24 24
15 14 13 11 11 9 9 7 7 8 8 9 9 9 10 7 8 7 6 5 6 7 8 8 9 10 10 10 10 11 11 11 10 10 10 19 20 21 22 22 23 23 23
16 15 13 12 11 10 9 9 8 8 8 8 9 11 11 8 8 8 8 7 7 7 8 8 11 10 9 9 11 11 11 10 10 10 9 14 21 21 21 21 22 22 22
16 14 13 12 11 11 11 10 8 8 8 8 9 11 12 10 10 9 8 7 7 8 10 10 11 10 9 10 11 10 9 9 9 9 9 8 11 18 20 20 20 21 21
15 15 14 10 11 12 11 10 8 8 8 8 8 9 12 12 12 10 9 8 9 8 9 10 10 10 9 9 9 8 8 7 9 9 8 8 7 8 14 20 20 20 20
16 16 15 14 14 13 11 9 8 7 8 7 7 8 11 13 13 11 9 9 11 9 9 9 10 10 11 10 9 8 7 7 7 8 9 9 8 8 8 13 18 19 18
16 16 16 15 14 12 9 7 6 7 6 6 7 8 11 11 13 11 9 12 12 10 9 10 12 10 10 11 10 9 7 6 5 6 7 7 7 8 8 7 7 11 17
17 17 18 17 16 13 10 9 8 8 7 6 6 8 11 12 13 12 10 13 12 11 13 14 14 15 11 11 9 8 7 6 6 5 5 5 6 7 7 7 6 5 6
19 19 19 19 18 16 13 10 7 8 6 6 5 7 9 11 13 11 14 13 13 11 14 15 16 11 10 9 7 7 6 5 4 3 4 4 5 5 6 7 7 6 5
18 20 17 20 19 18 15 10 6 5 4 5 6 7 8 10 11 12 14 14 14 14 15 17 17 14 12 9 6 5 7 7 6 4 4 4 4 4 4 4 6 6 6
17 16 17 18 18 18 17 14 15 13 12 13 9 8 8 9 11 11 13 14 15 13 16 17 16 12 15 11 6 3 1 5 7 7 5 5 4 4 4 3 4 5 5
13 14 15 17 18 18 18 18 17 15 12 9 9 10 10 8 10 11 12 13 14 13 16 17 15 13 12 12 8 6 4 3 4 6 7 8 6 4 4 4 3 3 3
10 12 13 16 17 18 18 18 19 18 15 13 13 12 10 7 8 10 11 11 13 12 15 16 15 15 12 12 8 7 6 6 6 5 5 8 7 5 5 4 3 2 2
Wind_Direction
158 153 144 143 135 127 118 111 104 99 94 90 86 83 81 78 77 77 78 79 80 80 82 83 82 77 74 71 69 68 67 65 64 64 65 61 59 57 54 48 48 52 52
151 153 145 145 138 131 124 117 110 103 97 92 88 85 83 82 80 79 80 81 82 83 84 85 84 79 76 73 71 69 68 66 65 63 68 67 61 59 57 55 52 52 52
151 152 151 147 140 136 130 123 116 108 101 95 91 88 85 83 83 82 81 82 84 85 87 88 85 81 77 75 73 71 68 66 63 57 64 66 63 60 60 58 56 55 53
153 155 154 145 143 141 135 129 121 113 105 99 94 91 87 85 84 84 84 84 85 88 89 89 86 83 80 77 74 72 69 65 57 56 65 65 64 63 62 61 59 57 56
156 157 148 149 148 146 141 135 126 119 111 103 97 94 90 87 86 85 86 86 86 89 90 89 86 84 82 79 76 74 70 68 60 66 68 67 66 65 64 63 62 60 58
158 158 152 154 152 150 146 141 134 125 117 108 102 97 94 91 89 88 89 87 86 88 89 88 86 84 82 80 77 74 70 64 68 68 67 66 66 66 66 65 64 62 60
160 160 158 157 155 154 153 148 141 133 124 115 108 102 99 96 94 93 92 91 90 91 90 88 86 85 83 81 78 73 69 60 69 69 67 67 67 68 67 66 65 64 62
162 162 161 157 159 159 158 154 147 140 132 123 115 108 103 100 98 97 97 96 94 93 92 90 88 87 85 82 78 73 63 56 72 70 68 67 67 68 68 67 66 65 64
167 168 169 169 167 164 162 158 153 146 138 129 120 111 105 101 99 98 99 99 98 96 95 93 91 89 86 83 79 74 63 56 72 69 67 64 65 67 67 66 65 65 64
174 175 174 174 175 175 172 163 158 152 144 133 122 114 108 104 100 99 103 102 102 101 99 97 94 90 87 83 78 72 59 66 70 69 66 66 67 69 68 67 66 65 64
183 182 181 179 180 180 176 167 165 158 148 139 131 128 130 123 116 109 102 106 106 104 102 99 97 93 90 82 75 68 63 70 69 65 64 67 71 71 70 69 67 66 64
190 188 188 187 184 183 178 176 177 170 164 162 154 150 141 128 116 112 99 101 104 105 103 101 100 98 94 90 78 69 73 74 71 66 60 66 72 73 72 70 68 66 64
193 189 193 192 190 188 183 183 181 176 172 169 163 158 146 134 131 128 124 117 116 116 110 109 102 92 87 83 80 78 77 76 73 68 57 62 71 73 73 71 69 67 65
198 196 192 193 195 195 192 189 185 181 178 174 171 164 157 151 149 145 141 139 135 125 122 111 101 96 91 86 83 82 78 77 76 73 57 57 67 71 73 73 71 69 67
203 200 196 196 198 197 197 196 193 189 187 182 176 174 170 162 157 151 144 143 137 131 127 119 112 106 99 91 86 85 83 81 81 79 68 58 63 68 70 71 70 69 67
208 203 198 200 201 199 201 201 200 196 192 188 182 182 177 168 162 155 147 143 140 136 128 123 119 111 102 97 91 86 85 85 83 83 80 67 62 63 66 68 68 68 67
209 206 202 202 201 203 205 205 204 200 195 192 188 186 182 174 167 159 152 148 142 135 129 123 118 113 109 104 97 90 84 81 85 83 80 76 70 63 62 65 66 66 65
210 208 205 201 204 206 206 204 204 204 200 196 191 187 186 180 171 161 155 151 144 142 139 135 132 124 119 113 104 96 90 86 82 82 81 79 74 70 64 61 61 62 62
211 208 206 204 206 206 204 204 203 203 203 198 192 189 185 180 174 166 159 152 149 147 146 141 137 134 128 119 109 98 90 86 87 85 83 78 74 73 72 66 60 55 57
211 210 208 206 206 201 195 194 197 199 202 199 196 192 183 179 174 165 156 156 154 150 150 148 139 133 129 125 113 97 87 89 87 87 88 83 78 76 74 71 65 57 53
209 208 208 206 202 195 191 193 196 202 199 198 198 194 186 179 174 167 159 161 163 161 158 153 142 138 137 135 122 110 95 87 88 90 94 95 91 84 80 73 65 61 54
209 208 208 207 202 199 200 197 200 196 199 198 186 191 189 181 176 171 167 167 167 160 155 156 150 145 156 167 151 146 143 145 123 100 111 111 112 105 90 78 71 62 58
213 210 208 207 203 201 197 188 165 167 168 183 193 192 191 183 179 177 174 170 169 166 165 167 166 160 169 182 196 174 165 165 149 152 144 145 141 130 114 99 82 68 61
217 212 211 208 205 201 194 192 190 194 199 201 192 186 181 182 181 180 177 175 172 172 172 174 178 173 170 173 182 217 211 144 157 155 168 168 161 151 139 126 104 81 63
216 209 208 208 206 202 199 200 202 207 208 195 182 177 178 181 183 180 180 179 177 177 176 178 180 180 180 180 172 161 154 153 163 156 164 170 177 171 162 149 134 107 74
211 205 204 205 206 203 203 204 206 207 200 188 186 182 181 179 182 183 183 185 183 180 180 182 182 184 184 185 179 172 166 169 176 168 155 164 171 165 173 176 171 146 94